Location: St. Louis
(38.6270°N, 90.1994°W)
Time: 09:06:14
(UTC-06:00)

SR - Pass Details

Date: 07 December 2021
Orbit: 582 x 872 km, 66.7° (Epoch: 21 January)

Event Time Altitude Azimuth Distance (km) Brightness Sun altitude
Rises 20:53:52 0° 165° (SSE) 3,027 - -48.9°
Reaches altitude 10° 20:57:06 10° 143° (SE) 2,058 - -49.5°
Maximum altitude 20:59:45 15° 108° (ESE) 1,694 - -50.0°
Drops below altitude 10° 21:02:20 10° 72° (ENE) 1,983 - -50.5°
Sets 21:05:20 0° 49° (NE) 2,854 - -51.1°
